North Bend, OR

6:15 AM PDT on June 23, 2017 (GMT -0700)
North Bend Municipal

Weather History for KOTH - April, 2014

Change the Weather History Date:

Thursday, April 3, 2014

  Actual Average Record
Temperature  
Mean Temperature 49 °F 48 °F  
Max Temperature 55 °F 54 °F 80 °F (1966)
Min Temperature 43 °F 42 °F 31 °F (1918)
Degree Days  
Heating Degree Days 16 17  
Month to date heating degree days 53 51  
Since 1 July heating degree days 3286 3763  
Cooling Degree Days 0 0  
Month to date cooling degree days 0 0  
Year to date cooling degree days 0 0  
Moisture  
Dew Point 45 °F    
Average Humidity 89    
Maximum Humidity 100    
Minimum Humidity 66    
Precipitation  
Precipitation 0.22 in 0.22 in 1.11 in (1975)
Month to date precipitation 0.22 0.65  
Year to date precipitation 16.29 26.26  
Sea Level Pressure  
Sea Level Pressure 30.02 in    
Wind  
Wind Speed 8 mph (South)    
Max Wind Speed 17 mph    
Max Gust Speed 28 mph    
Visibility 10 miles    
Events      
T = Trace of Precipitation, MM = Missing Value Source: NWS Daily Summary

Daily Weather History Graph

Daily Weather History Graph

Search for Another Location

Airport or City:

Trip Planner

Search our weather history database for the weather conditions in past years. The results will help you decide how hot, cold, wet, or windy it might be!

Date:

Astronomy

Apr. 03, 2014 Rise Set
Actual Time 6:55 AM PDT 7:46 PM PDT
Civil Twilight 6:26 AM PDT 8:15 PM PDT
Nautical Twilight 5:51 AM PDT 8:49 PM PDT
Astronomical Twilight 5:15 AM PDT 9:25 PM PDT
Moon 9:22 AM PDT (4/3) No Moon Set
Length of Visible Light 13h 49m
Length of Day
12h 51m
Waxing Crescent, 18% of the Moon is Illuminated
Apr 3
Waxing Crescent
Apr 7
First Quarter
Apr 15
Full
Apr 22
Last Quarter
Apr 28
New

Hourly Weather History & Observations

Time (PDT) Temp. Windchill Dew Point Humidity Pressure Visibility Wind Dir Wind Speed Gust Speed Precip Events Conditions
12:15 AM 44.6 °F 40.7 °F 44.6 °F 100% 30.08 in 10.0 mi SE 6.9 mph - N/A   Clear
12:35 AM 44.6 °F 42.2 °F 42.8 °F 93% 30.07 in 10.0 mi SSE 4.6 mph - N/A   Partly Cloudy
12:55 AM 44.6 °F 42.2 °F 42.8 °F 93% 30.07 in 10.0 mi SSE 4.6 mph - N/A   Mostly Cloudy
1:15 AM 44.6 °F 41.4 °F 42.8 °F 93% 30.07 in 10.0 mi SSE 5.8 mph - N/A   Partly Cloudy
1:35 AM 42.8 °F 41.1 °F 42.8 °F 100% 30.07 in 10.0 mi South 3.5 mph - N/A   Clear
1:55 AM 42.8 °F 41.1 °F 42.8 °F 100% 30.06 in 10.0 mi SSE 3.5 mph - N/A   Mostly Cloudy
2:15 AM 44.6 °F 41.4 °F 44.6 °F 100% 30.06 in 10.0 mi SSE 5.8 mph - N/A   Overcast
2:35 AM 44.6 °F 39.7 °F 44.6 °F 100% 30.06 in 10.0 mi SE 9.2 mph - N/A   Mostly Cloudy
2:55 AM 44.6 °F 40.7 °F 44.6 °F 100% 30.05 in 10.0 mi SSE 6.9 mph - N/A   Clear
3:15 AM 42.8 °F 39.3 °F 42.8 °F 100% 30.05 in 10.0 mi South 5.8 mph - N/A   Scattered Clouds
3:35 AM 44.6 °F 40.7 °F 44.6 °F 100% 30.04 in 10.0 mi SSE 6.9 mph - N/A   Mostly Cloudy
3:55 AM 44.6 °F 40.7 °F 44.6 °F 100% 30.04 in 10.0 mi SSE 6.9 mph - N/A   Mostly Cloudy
4:15 AM 44.6 °F 39.7 °F 42.8 °F 93% 30.03 in 10.0 mi SSE 9.2 mph - N/A   Mostly Cloudy
4:35 AM 44.6 °F 40.2 °F 42.8 °F 93% 30.03 in 10.0 mi SSE 8.1 mph - N/A   Partly Cloudy
4:55 AM 44.6 °F 40.2 °F 42.8 °F 93% 30.03 in 10.0 mi South 8.1 mph - N/A   Clear
5:15 AM 44.6 °F 40.2 °F 42.8 °F 93% 30.03 in 10.0 mi South 8.1 mph - N/A   Clear
5:35 AM 44.6 °F 40.2 °F 42.8 °F 93% 30.03 in 10.0 mi South 8.1 mph - N/A   Scattered Clouds
5:55 AM 44.6 °F 39.7 °F 42.8 °F 93% 30.02 in 10.0 mi SSE 9.2 mph - N/A   Scattered Clouds
6:15 AM 44.6 °F 40.2 °F 42.8 °F 93% 30.02 in 10.0 mi SSE 8.1 mph - N/A   Mostly Cloudy
6:35 AM 44.6 °F 40.2 °F 42.8 °F 93% 30.01 in 10.0 mi South 8.1 mph - N/A   Overcast
6:55 AM 44.6 °F 39.7 °F 42.8 °F 93% 30.01 in 10.0 mi South 9.2 mph - N/A   Overcast
7:15 AM 44.6 °F 39.2 °F 42.8 °F 93% 30.01 in 10.0 mi SSE 10.4 mph - N/A   Overcast
7:35 AM 44.6 °F 39.7 °F 42.8 °F 93% 30.01 in 10.0 mi SSE 9.2 mph - N/A   Overcast
7:55 AM 44.6 °F 40.7 °F 42.8 °F 93% 30.01 in 10.0 mi SSE 6.9 mph - N/A   Overcast
8:15 AM 46.4 °F 42.9 °F 42.8 °F 87% 30.01 in 10.0 mi SSE 6.9 mph - N/A   Overcast
8:35 AM 46.4 °F 42.9 °F 42.8 °F 87% 30.02 in 10.0 mi SSE 6.9 mph - N/A   Mostly Cloudy
8:55 AM 46.4 °F 42.9 °F 42.8 °F 87% 30.02 in 10.0 mi SSE 6.9 mph - N/A   Mostly Cloudy
9:15 AM 48.2 °F - 44.6 °F 87% 30.01 in 10.0 mi SE 5.8 mph - N/A   Mostly Cloudy
9:35 AM 48.2 °F - 44.6 °F 87% 30.01 in 10.0 mi SE 8.1 mph - N/A   Overcast
9:55 AM 48.2 °F - 42.8 °F 82% 30.01 in 10.0 mi SSE 8.1 mph - N/A   Mostly Cloudy
10:15 AM 51.8 °F - 44.6 °F 76% 30.01 in 10.0 mi SE 8.1 mph - N/A   Partly Cloudy
10:35 AM 53.6 °F - 44.6 °F 72% 30.01 in 10.0 mi SSE 9.2 mph - N/A   Clear
10:55 AM 53.6 °F - 42.8 °F 67% 30.01 in 10.0 mi SSE 10.4 mph - N/A   Clear
11:15 AM 53.6 °F - 42.8 °F 67% 30.01 in 10.0 mi South 10.4 mph - N/A   Mostly Cloudy
11:35 AM 55.4 °F - 41.0 °F 58% 30.01 in 10.0 mi South 11.5 mph 18.4 mph N/A   Overcast
11:55 AM 53.6 °F - 44.6 °F 72% 30.01 in 10.0 mi WSW 15.0 mph - N/A   Overcast
12:15 PM 53.6 °F - 46.4 °F 77% 30.02 in 10.0 mi SW 6.9 mph - N/A   Overcast
12:35 PM 53.6 °F - 44.6 °F 72% 30.01 in 10.0 mi SW 10.4 mph 16.1 mph N/A   Overcast
12:55 PM 53.6 °F - 44.6 °F 72% 30.01 in 10.0 mi SW 10.4 mph 24.2 mph N/A   Overcast
1:15 PM 55.4 °F - 46.4 °F 72% 30.01 in 10.0 mi WSW 13.8 mph 21.9 mph N/A   Overcast
1:35 PM 55.4 °F - 48.2 °F 77% 30.01 in 10.0 mi WSW 19.6 mph 27.6 mph N/A   Overcast
1:55 PM 53.6 °F - 48.2 °F 82% 30.01 in 10.0 mi WSW 17.3 mph - N/A   Overcast
2:15 PM 53.6 °F - 48.2 °F 82% 30.01 in 10.0 mi WSW 12.7 mph 20.7 mph N/A   Overcast
2:35 PM 55.4 °F - 46.4 °F 72% 30.01 in 10.0 mi SW 16.1 mph 25.3 mph N/A   Mostly Cloudy
2:55 PM 55.4 °F - 46.4 °F 72% 30.01 in 10.0 mi SW 17.3 mph 27.6 mph N/A   Partly Cloudy
3:15 PM 53.6 °F - 44.6 °F 72% 30.01 in 10.0 mi SW 12.7 mph 24.2 mph N/A   Mostly Cloudy
3:55 PM 53.6 °F - 44.6 °F 72% 30.01 in 10.0 mi SW 13.8 mph 21.9 mph N/A   Overcast
4:15 PM 53.6 °F - 46.4 °F 77% 30.01 in 10.0 mi WSW 17.3 mph 21.9 mph N/A   Overcast
4:55 PM 50.0 °F - 48.2 °F 94% 30.02 in 9.0 mi SW 10.4 mph 17.3 mph 0.04 in   Overcast
5:15 PM 50.0 °F - 48.2 °F 94% 30.02 in 9.0 mi WSW 9.2 mph 17.3 mph 0.01 in   Overcast
5:35 PM 51.8 °F - 48.2 °F 88% 30.01 in 10.0 mi WSW 8.1 mph - 0.01 in   Overcast
5:55 PM 50.0 °F - 50.0 °F 100% 30.02 in 8.0 mi WSW 12.7 mph - 0.02 in   Overcast
6:15 PM 48.2 °F - 48.2 °F 100% 30.02 in 9.0 mi SW 3.5 mph - 0.02 in   Overcast
6:35 PM 48.2 °F - 46.4 °F 93% 30.02 in 10.0 mi SW 4.6 mph - 0.04 in   Mostly Cloudy
6:55 PM 48.2 °F - 48.2 °F 100% 30.01 in 10.0 mi SSW 3.5 mph - 0.04 in   Overcast
7:15 PM 48.2 °F - 48.2 °F 100% 30.01 in 10.0 mi SSE 5.8 mph - 0.01 in   Overcast
7:35 PM 48.2 °F - 48.2 °F 100% 30.01 in 10.0 mi SSE 5.8 mph - 0.01 in   Mostly Cloudy
8:55 PM 48.2 °F - 48.2 °F 100% 30.02 in 10.0 mi SSE 4.6 mph - N/A   Overcast
9:15 PM 48.2 °F - 48.2 °F 100% 30.02 in 10.0 mi SSE 4.6 mph - N/A   Overcast
9:35 PM 48.2 °F - 48.2 °F 100% 30.02 in 10.0 mi SSE 5.8 mph - N/A   Overcast
9:55 PM 48.2 °F - 48.2 °F 100% 30.03 in 9.0 mi SSE 5.8 mph - N/A   Overcast
10:15 PM 48.2 °F - 48.2 °F 100% 30.03 in 10.0 mi SSE 5.8 mph - N/A   Overcast
10:35 PM 48.2 °F - 46.4 °F 93% 30.03 in 8.0 mi SSW 4.6 mph - 0.02 in   Overcast
10:55 PM 48.2 °F - 46.4 °F 93% 30.03 in 9.0 mi Calm Calm - 0.07 in   Overcast
11:15 PM 48.2 °F - 46.4 °F 93% 30.04 in 10.0 mi SW 4.6 mph - 0.02 in   Overcast
11:35 PM 48.2 °F - 48.2 °F 100% 30.04 in 10.0 mi SW 6.9 mph - 0.04 in   Overcast
11:55 PM 48.2 °F - 46.4 °F 93% 30.04 in 10.0 mi South 4.6 mph - 0.04 in   Overcast